Weather History for Eureka, NV

Change the Weather History Date:

Sunday, March 17, 2013

  Actual Average Record
Temperature  
Mean Temperature 41 °F 37 °F  
Max Temperature 55 °F 51 °F 75 °F (2007)
Min Temperature 27 °F 23 °F -4 °F (2002)
Degree Days  
Heating Degree Days 24 28  
Month to date heating degree days 404 504  
Since 1 July heating degree days 5492 5789  
Cooling Degree Days 0 0  
Month to date cooling degree days 0 0  
Year to date cooling degree days 0 0  
Moisture  
Dew Point 13 °F    
Average Humidity 35    
Maximum Humidity 56    
Minimum Humidity 14    
Precipitation  
Precipitation 0.00 in 0.03 in 0.96 in (2012)
Month to date precipitation 0.08 0.48  
Year to date precipitation 1.99 2.08  
Sea Level Pressure  
Sea Level Pressure 29.89 in    
Wind  
Wind Speed 14 mph (West)    
Max Wind Speed 30 mph    
Max Gust Speed 38 mph    
T = Trace of Precipitation, MM = Missing Value Source: NWS Daily Summary

Daily Weather History Graph

Daily Weather History Graph

Search for Another Location

Airport:

Trip Planner

Search our weather history database for the weather conditions in past years. The results will help you decide how hot, cold, wet, or windy it might be!

Date:

Astronomy

Mar. 17, 2013 Rise Set
Actual Time 6:51 AM PDT 6:53 PM PDT
Civil Twilight 6:24 AM PDT 7:20 PM PDT
Nautical Twilight 5:53 AM PDT 7:51 PM PDT
Astronomical Twilight 5:21 AM PDT 8:23 PM PDT
Moon 10:08 AM PDT (3/17) 12:04 AM PDT (3/17)
Length of Visible Light 12h 55m
Length of Day
12h 01m
Waxing Crescent, 32% of the Moon is Illuminated
Mar 17
Waxing Crescent
Mar 19
First Quarter
Mar 27
Full
Apr 2
Last Quarter
Apr 10
New

Hourly Weather History & Observations

Time (PDT) Temp. Windchill Dew Point Humidity Pressure Visibility Wind Dir Wind Speed Gust Speed Precip Events Conditions
12:53 AM 43.0 °F 40.3 °F 23.0 °F 45% 29.81 in - Variable 4.6 mph - N/A   Unknown
1:53 AM 46.0 °F 38.3 °F 21.0 °F 37% 29.81 in - WNW 20.7 mph 33.4 mph N/A   Unknown
2:53 AM 44.1 °F 35.2 °F 21.9 °F 42% 29.82 in - WNW 23.0 mph 29.9 mph N/A   Unknown
3:53 AM 41.0 °F 35.8 °F 21.0 °F 45% 29.83 in - West 8.1 mph - N/A   Unknown
4:53 AM 39.0 °F 36.8 °F 21.0 °F 49% 29.84 in - SSW 3.5 mph - N/A   Unknown
5:53 AM 36.0 °F 30.3 °F 19.9 °F 52% 29.87 in - WSW 6.9 mph - N/A   Unknown
6:53 AM 33.1 °F 27.7 °F 19.0 °F 56% 29.91 in - SW 5.8 mph - N/A   Unknown
7:53 AM 37.9 °F 32.1 °F 21.0 °F 51% 29.90 in - SW 8.1 mph - N/A   Unknown
8:53 AM 45.0 °F 36.9 °F 19.0 °F 36% 29.91 in - WSW 20.7 mph 27.6 mph N/A   Unknown
9:53 AM 48.0 °F - 12.9 °F 24% 29.87 in - West 23.0 mph 34.5 mph N/A   Unknown
10:53 AM 50.0 °F - 10.9 °F 21% 29.88 in - WNW 18.4 mph 28.8 mph N/A   Unknown
11:53 AM 52.0 °F - 10.9 °F 19% 29.90 in - West 18.4 mph 27.6 mph N/A   Unknown
12:53 PM 54.0 °F - 10.0 °F 17% 29.88 in - NW 21.9 mph 31.1 mph N/A   Unknown
1:53 PM 53.1 °F - 8.1 °F 16% 29.86 in - NW 23.0 mph 34.5 mph N/A   Unknown
2:53 PM 54.0 °F - 8.1 °F 16% 29.86 in - NW 18.4 mph 29.9 mph N/A   Unknown
3:53 PM 54.0 °F - 8.1 °F 16% 29.86 in - WNW 26.5 mph 34.5 mph N/A   Unknown
4:53 PM 53.1 °F - 7.0 °F 16% 29.88 in - WNW 23.0 mph 31.1 mph N/A   Unknown
5:53 PM 51.1 °F - 5.0 °F 15% 29.90 in - WNW 15.0 mph 27.6 mph N/A   Unknown
6:53 PM 46.9 °F - 5.0 °F 18% 29.94 in - WNW 16.1 mph 21.9 mph N/A   Unknown
7:53 PM 45.0 °F 39.3 °F 5.0 °F 19% 29.94 in - WNW 11.5 mph - N/A   Unknown
8:53 PM 39.9 °F 37.8 °F 7.0 °F 26% 29.95 in - Variable 3.5 mph - N/A   Unknown
9:53 PM 36.0 °F - 9.0 °F 33% 29.96 in - Calm Calm - N/A   Unknown
10:53 PM 37.0 °F 31.0 °F 10.0 °F 33% 29.95 in - South 8.1 mph - N/A   Unknown
11:53 PM 30.0 °F 24.1 °F 12.0 °F 47% 29.98 in - South 5.8 mph - N/A   Unknown